Location: Unspecified
(0.0000°N, 0.0000°E)
Time: 23:06:04
(UTC+00:00)

N. Korean satellite - Pass Details

Date: 18 October 2020
Orbit: 452 x 505 km, 97.2° (Epoch: 30 October)

Event Time Altitude Azimuth Distance (km) Brightness Sun altitude
Rises 04:51:10 0° 22° (NNE) 2,446 10.3 -13.3°
Reaches altitude 10° 04:53:16 10° 29° (NNE) 1,577 9.4 -12.8°
Maximum altitude 04:56:28 42° 101° (E) 661 7.9 -12.0°
Drops below altitude 10° 04:59:42 10° 173° (S) 1,592 9.4 -11.2°
Sets 05:01:49 0° 180° (S) 2,473 10.3 -10.7°
